星链-37936(STARLINK-37936)

导读

STARLINK-37936(NORAD编号69563)是美国太空探索技术公司(SpaceX)星链星座的低轨通信卫星,属于2026年第二季度发射的组网批次,目前处于在轨运营状态。 该卫星运行于约540公里高度的近地轨道,轨道周期约94分钟,是星链第二代迷你(V2 Mini)优化版卫星,搭载升级型激光通信链路和更高功率通信载荷,单星通信容量较初代提升超3倍,主要为全球用户提供低延迟高速互联网接入服务,重点覆盖地面网络难以触达的偏远区域、航空及航海场景。 截至2026年6月,该卫星运行状态稳定,未公开报告轨道异常或故障情况,是星链星座扩充至超1万颗运营卫星的组成部分。

Basic Information
目录编号:
69563
目录名称:
STARLINK-37936
国际标识:
2026-135T
轨道中心:
EARTH
卫星名称:
星链-37936
卫星全名:
星链-37936(STARLINK-37936)
卫星状态:
在轨 (已飞行81 天)
发射日期:
2026-06-15 UTC
国别 :
美国 (US)
星等 :
--
Orbit Information
数据来源 国际轨道数据 AOE轨道数据
星历时间 2026-09-04T00:04:29+0800
15小时前
查看轨道信息
2026-09-03T23:00:00+0800
16小时前
查看轨道信息
半长轴 6843.69km 6843.714km
偏心率 0.0001689 0.0002093
轨道倾角 97.284° 97.284°
近地点辐角 33.660° 99.961°
升交点赤经 274.638° 274.599°
平近点角 326.475° 13.140°
近地点 464.397km 464.144km
远地点 466.709km 467.01km
周期 93.906分钟 93.907分钟
每日圈数 15.33442 15.334339
Detailed Information
固有亮度:
5
最大亮度:
2.5
卫星平台:
Starlink V1.0
覆盖范围:
全球
运营商:
太空探索技术公司
运营商所在国:
美国
制造商(研发单位):
太空探索技术公司
制造商所在国:
美国
使用方式:
暂无
Satellite Introduction
Starlink 计划是 SpaceX 推出的全球卫星互联网项目,通过发射低轨道卫星,为全球尤其是偏远地区提供高速、低延迟的互联网服务。自 2019 年起,Starlink 已部署数千颗卫星,旨在缩小全球数字鸿沟,推动互联网普及。该项目还为军事、航空等行业提供通信支持,带来广泛经济效益。
2D Orbit Map
3D Orbit Map
Orbit Altitude Analysis Chart
Orbit Inclination Analysis Chart
Orbit Comprehensive Analysis Chart
View Comprehensive Chart
Conjunction Data List
Event ID Objects TCA Miss Dist (km) Collision Risk Probability Collision Risk Index (CRI) Action
CDM_260830-202206-202706-956321
2026-08-30T
20:22:07+0000
1.951 km
极远距离
3.036366E-6 低风险 0.45
CDM_260903-120106-231906-956322
2026-09-03T
12:01:50+0000
2.932 km
极远距离
1.365104E-6 低风险 0.38
CDM_260905-140504-844406-956321
2026-09-05T
14:05:18+0000
2.942 km
极远距离
1.337662E-6 低风险 0.38